Location: Lake Mineral Wells State Park
(32.8157°N, 98.0290°W)
Time: 09:48:21
(UTC-05:00)

Tiangong 2 - Visible Passes

Search period start: 21 March 2019 00:00
Search period end: 31 March 2019 00:00
Orbit: 379 x 390 km, 42.8° (Epoch: 21 March)

Date Brightness Start Highest point End Pass type
(mag) Time Alt. Az. Time Alt. Az. Time Alt. Az.
21 Mar 4.5 05:16:09 12° NE 05:16:09 12° NE 05:16:32 10° NE visible
21 Mar 1.9 06:48:38 10° NW 06:51:44 48° NNE 06:54:49 10° ESE visible
22 Mar 2.7 05:51:54 28° NNE 05:52:09 29° NNE 05:54:58 10° E visible
23 Mar 1.0 06:27:46 24° WNW 06:29:30 84° SSW 06:32:40 10° ESE visible
24 Mar 3.4 05:31:34 24° E 05:31:34 24° E 05:33:04 10° ESE visible
24 Mar 2.8 07:04:13 10° W 07:06:32 19° SW 07:08:51 10° S visible
25 Mar 2.0 06:07:48 34° S 06:07:48 34° S 06:10:08 10° SE visible
27 Mar 3.3 20:38:53 10° SSE 20:39:44 12° SE 20:39:44 12° SE visible
28 Mar 1.8 21:13:56 10° SW 21:16:17 41° S 21:16:17 41° S visible
29 Mar 2.4 20:14:56 10° SSW 20:17:31 24° SE 20:20:07 10° E visible
29 Mar 3.5 21:51:11 10° W 21:52:39 23° W 21:52:39 23° W visible
30 Mar 1.1 20:51:25 10° WSW 20:54:32 75° NNW 20:56:33 20° NE visible
